Regional Weather Roundup
Issued by NWS

Home | Current Version | Previous Version | Text Only | Print | Product List | Glossary Off
Versions: 1 2 3 4 5 6 7 8 9 10 11 12 13 14 15 16 17 18 19 20 21 22 23 24 25 26 27 28 29 30 31 32 33 34 35 36 37 38 39 40 41 42 43 44 45 46 47 48 49 50

000
ASUS44 KOUN 021610
RWROK

WEATHER ROUNDUP FOR OKLAHOMA
NATIONAL WEATHER SERVICE NORMAN OK
1100 AM CDT TUE SEP 02 2014

NOTE: "FAIR" INDICATES FEW OR NO CLOUDS BELOW 12,000 FEET WITH NO
      SIGNIFICANT WEATHER AND/OR OBSTRUCTIONS TO VISIBILITY.

OKZ001>007-009>012-014-015-017-021700-
NORTHWEST OKLAHOMA AND THE PANHANDLE

CITY           SKY/WX    TMP DP  RH WIND       PRES   REMARKS
GAGE           SUNNY     84  67  56 SE9       29.98R
$$

OKZ016-021>023-033>039-044-045-021700-
SOUTHWEST OKLAHOMA

CITY           SKY/WX    TMP DP  RH WIND       PRES   REMARKS
LAWTON/REGL    SUNNY     88  69  53 S9        29.95F HX  92
LAWTON/FT SILL SUNNY     88  71  56 S12       29.95S HX  93
FREDERICK      SUNNY     89  70  53 S10       29.91F HX  94
CLINTON        SUNNY     86  67  52 SE12G21   29.97F
HOBART         SUNNY     86  69  56 S15       29.94F HX  90
ALTUS AFB      SUNNY     88  69  53 S10       29.93S HX  92
$$

OKZ018>020-024>031-021700-
CENTRAL OKLAHOMA

CITY           SKY/WX    TMP DP  RH WIND       PRES   REMARKS
OKLAHOMA CITY  CLOUDY    80  70  71 SE14      29.99R
OKC/WILEY POST CLOUDY    76  72  87 SE16G22   29.98S
OKC/TINKER AFB CLOUDY    74  71  87 E14G23    30.00S
STILLWATER     CLOUDY    70  67  90 SE10      29.99R
GUTHRIE        CLOUDY    73  67  81 SE15G26   29.99R
$$

OKZ008-013-054>072-021700-
NORTHEAST OKLAHOMA

CITY           SKY/WX    TMP DP  RH WIND       PRES   REMARKS
TULSA          CLOUDY    70  67  90 SE9       30.04R
TULSA/JONES    TSTM      70  67  90 S12       30.06S
PONCA CITY     CLOUDY    72  68  87 SE9       29.99R
BARTLESVILLE   CLOUDY    68  68 100 SE6       30.05R
MUSKOGEE       RAIN      67  66  97 S12       30.12R FOG
$$

OKZ032-040>043-046>053-073>077-021700-
SOUTH CENTRAL/SOUTHEAST OKLAHOMA

CITY           SKY/WX    TMP DP  RH WIND       PRES   REMARKS
ARDMORE/DWNTWN MOSUNNY   86  68  54 SW7       30.00R
MCALESTER      HVY RAIN  69  67  93 NE8G22    30.12R FOG
$$



USA.gov is the U.S. government's official web portal to all federal, state and local government web resources and services.